Location: Newark
(3.0500°N, 36.0167°E)
Time: 07:44:29
(UTC+00:00)

A-11 Canister half - Pass Details

Date: 01 September 2019
Orbit: 1527 x 1682 km, 47.3° (Epoch: 19 September)

Event Time Altitude Azimuth Distance (km) Brightness Sun altitude
Rises 15:36:42 0° 316° (NW) 4,920 12.6 0.3°
Reaches altitude 10° 15:39:53 10° 315° (NW) 3,925 12.1 -0.5°
Maximum altitude 15:49:57 75° 231° (SW) 1,694 9.4 -3.0°
Drops below altitude 10° 15:59:45 10° 147° (SSE) 3,831 10.7 -5.4°
Sets 16:02:50 0° 145° (SE) 4,797 11.2 -6.2°
